パンスターズ彗星

P/2016 G1 ( PanSTARRS )

English version
Home page
Updated on August 14, 2021

---------------------------------------------------------------------

・ プロフィール

発見日 2016年4月1日
発見光度 20.1等
発見者 Pan-STARRS 1 telescope (Haleakala)

・ 写真集

・ 軌道要素

Epoch 2017 Jan. 7.0 TT = JDT 2457760.5
T 2017 Jan. 26.26407 TT                                 MPCW
q   2.0404517            (2000.0)            P               Q
n   0.23739109     Peri.  111.30148     +0.70479261     +0.70515484
a   2.5832104      Node   204.07479     -0.70073928     +0.67493933
e   0.2101101      Incl.   10.96826     -0.11059769     +0.21728682
P   4.15
From 134 observations 2016 Mar. 12-Aug. 9, mean residual 0".6.

・ 光度変化

        m1 = 13.5 + 5 logΔ + 10.0 log r

---------------------------------------------------------------------

軌道要素はM.P.E.C. 2016-Q04に掲載されたものです。
光度グラフはComet for Windowsで作成したものです。

---------------------------------------------------------------------

Copyright(C) Seiichi Yoshida (comet@aerith.net). All rights reserved.